Location: Unnamed
(56.8174°N, 60.5923°E)
Time: 06:45:18
(UTC+05:00)

Falcon 9 debris - Visible Passes

Search period start: 14 June 2021 00:00
Search period end: 24 June 2021 00:00
Orbit: 420 x 426 km, 53.0° (Epoch: 13 June)

Date Brightness Start Highest point End Pass type
(mag) Time Alt. Az. Time Alt. Az. Time Alt. Az.
14 Jun ? 00:36:58 10° SW 00:40:01 31° SSE 00:43:04 10° E visible
14 Jun ? 02:13:09 10° WSW 02:16:24 43° S 02:19:39 10° ESE visible
14 Jun ? 23:51:01 10° SW 23:53:54 26° SSE 23:56:47 10° E visible
15 Jun ? 01:26:59 10° WSW 01:30:14 43° S 01:33:29 10° ESE visible
15 Jun ? 23:05:10 10° SSW 23:07:48 21° SSE 23:10:26 10° ESE visible
16 Jun ? 00:40:50 10° WSW 00:44:04 41° S 00:47:17 10° E visible
16 Jun ? 02:17:18 10° W 02:20:29 37° SSW 02:23:38 10° ESE visible
16 Jun ? 23:54:43 10° SW 23:57:53 37° SSE 00:01:03 10° E visible
17 Jun ? 01:31:04 10° W 01:34:18 41° S 01:37:31 10° ESE visible
17 Jun ? 23:08:39 10° SW 23:11:43 32° SSE 23:14:47 10° E visible
18 Jun ? 00:44:52 10° WSW 00:48:07 43° S 00:51:22 10° ESE visible
18 Jun ? 02:21:33 10° W 02:24:27 27° SSW 02:27:21 10° SE visible
18 Jun ? 23:58:40 10° WSW 00:01:55 43° S 00:05:10 10° ESE visible
19 Jun ? 01:35:14 10° W 01:38:19 32° SSW 01:41:22 10° SE visible
19 Jun ? 23:12:28 10° WSW 23:15:43 41° S 23:18:56 10° E visible
20 Jun ? 00:48:58 10° W 00:52:07 37° SSW 00:55:17 10° SE visible
20 Jun ? 02:26:04 10° WSW 02:28:17 16° SSW 02:30:29 10° S visible
21 Jun ? 00:02:42 10° W 00:05:56 41° S 00:09:09 10° ESE visible
21 Jun ? 01:39:33 10° WSW 01:42:11 21° SSW 01:44:48 10° SSE visible
21 Jun ? 23:16:28 10° WSW 23:19:43 43° S 23:22:57 10° ESE visible
22 Jun ? 00:53:09 10° W 00:56:03 26° SSW 00:58:55 10° SE visible
23 Jun ? 00:06:49 10° W 00:09:52 31° SSW 00:12:55 10° SE visible
23 Jun ? 01:44:32 10° WSW 01:45:53 12° SW 01:46:12 12° SSW visible
23 Jun ? 23:20:31 10° W 23:23:40 36° SSW 23:26:49 10° SE visible
